Date String (YYYY-MM-DD hh:mm:ss) UTC,Instrument flags,absolute air pressure of the measurement (hPa),sample flow rate (lpm),inlet stack bypass flow (lpm),air temperature of the measurement (°C),ambient temperature measured by the external sensor (°C),aerosol sample conditioner tube jacket temperature (°C),OPC LED temperature (°C),internal box temperature (°C),relative humidity of the measurement (%),span deviation,mass concentration of particles derived from Lorenz-Mie calculation of OPC scattering (μg/m³),mass concentration of particles derived from Lorenz-Mie calculation of OPC scattering (μg/m³),mass concentration of particles derived from Lorenz-Mie calculation of OPC scattering (μg/m³)
DateTimeUTC,F1_M11,P_M11,Q1_M11,Q2_M11,T1_M11,T2_M11,T3_M11,T4_M11,T5_M11,U1_M11,ZSPAN_M11,X0_M11,X2_M11,X1_M11
2024-05-08 02:00:00,SystemResetWarning,0818.1,4.99,000.00,022.9,022.2,000.0,031.4,024.7,013.9,0000.0,0004.82,0000.90,0000.40
2024-05-08 02:01:00,SystemResetWarning,0818.1,5.01,000.00,022.9,022.1,000.0,031.4,024.7,012.9,0000.0,0005.05,0000.97,0000.42
2024-05-08 02:02:00,SystemResetWarning,0818.2,5.01,000.00,022.9,022.1,000.0,031.4,024.7,012.8,0000.0,0004.84,0001.03,0000.46
2024-05-08 02:03:00,SystemResetWarning,0818.1,4.99,000.00,022.9,022.1,000.0,031.3,024.6,012.7,0000.0,0004.92,0001.04,0000.49
2024-05-08 02:04:00,SystemResetWarning,0818.2,4.99,000.00,022.9,022.1,000.0,031.3,024.7,012.4,0000.0,0004.92,0001.06,0000.51
2024-05-08 02:05:00,SystemResetWarning,0818.3,5.01,000.00,022.9,022.1,000.0,031.3,024.6,013.0,0000.0,0004.79,0001.12,0000.55
2024-05-08 02:06:00,SystemResetWarning,0818.2,5.01,000.00,022.9,022.1,000.0,031.3,024.6,013.5,0000.0,0004.17,0001.15,0000.57
2024-05-08 02:07:00,SystemResetWarning,0818.2,5.00,000.00,022.9,022.1,000.0,031.3,024.6,013.7,0000.0,0003.32,0001.16,0000.59
2024-05-08 02:08:00,SystemResetWarning,0818.1,5.00,000.00,022.9,022.1,000.0,031.3,024.6,013.2,0000.0,0002.67,0001.18,0000.60
2024-05-08 02:09:00,SystemResetWarning,0818.0,5.00,000.00,022.8,022.0,000.0,031.3,024.6,012.2,0000.0,0002.88,0001.24,0000.63
2024-05-08 02:10:00,SystemResetWarning,0818.0,4.99,000.00,022.8,022.0,000.0,031.3,024.6,011.8,0000.0,0003.05,0001.31,0000.65
2024-05-08 02:11:00,SystemResetWarning,0818.1,4.99,000.00,022.8,022.0,000.0,031.3,024.5,011.5,0000.0,0003.21,0001.39,0000.68
2024-05-08 02:12:00,SystemResetWarning,0818.2,5.00,000.00,022.8,021.9,000.0,031.3,024.5,011.6,0000.0,0003.17,0001.41,0000.69
2024-05-08 02:13:00,SystemResetWarning,0818.2,5.01,000.00,022.8,021.9,000.0,031.2,024.5,011.7,0000.0,0003.15,0001.41,0000.70
2024-05-08 02:14:00,SystemResetWarning,0818.2,5.01,000.00,022.8,021.9,000.0,031.2,024.6,011.8,0000.0,0004.14,0001.46,0000.72
2024-05-08 02:15:00,SystemResetWarning,0818.4,5.01,000.00,022.8,021.9,000.0,031.2,024.6,011.8,0000.0,0004.59,0001.54,0000.74
2024-05-08 02:16:00,SystemResetWarning,0818.4,4.99,000.00,022.8,021.9,000.0,031.2,024.5,012.0,0000.0,0004.59,0001.54,0000.75
2024-05-08 02:17:00,SystemResetWarning,0818.3,5.00,000.00,022.8,021.9,000.0,031.2,024.5,012.1,0000.0,0004.73,0001.58,0000.76
2024-05-08 02:18:00,SystemResetWarning,0818.4,5.00,000.00,022.8,022.0,000.0,031.2,024.5,012.2,0000.0,0004.75,0001.60,0000.77
2024-05-08 02:19:00,SystemResetWarning,0818.4,5.01,000.00,022.8,022.0,000.0,031.1,024.5,012.3,0000.0,0004.86,0001.61,0000.78
2024-05-08 02:20:00,SystemResetWarning,0818.4,5.01,000.00,022.8,022.0,000.0,031.1,024.5,012.5,0000.0,0004.71,0001.59,0000.78
2024-05-08 02:21:00,SystemResetWarning,0818.4,5.00,000.00,022.7,022.0,000.0,031.1,024.5,012.6,0000.0,0004.50,0001.54,0000.76
2024-05-08 02:22:00,SystemResetWarning,0818.4,4.99,000.00,022.7,022.0,000.0,031.1,024.5,012.6,0000.0,0004.16,0001.43,0000.73
2024-05-08 02:23:00,SystemResetWarning,0818.4,5.00,000.00,022.7,022.0,000.0,031.1,024.5,012.6,0000.0,0004.14,0001.36,0000.71
2024-05-08 02:24:00,SystemResetWarning,0818.4,5.00,000.00,022.7,022.0,000.0,031.1,024.5,012.4,0000.0,0004.00,0001.29,0000.69
2024-05-08 02:25:00,SystemResetWarning,0818.3,4.99,000.00,022.7,022.0,000.0,031.0,024.5,012.3,0000.0,0003.05,0001.26,0000.67
2024-05-08 02:26:00,SystemResetWarning,0818.3,5.01,000.00,022.7,021.9,000.0,031.0,024.4,012.2,0000.0,0002.61,0001.24,0000.64
2024-05-08 02:27:00,SystemResetWarning,0818.4,5.01,000.00,022.7,021.9,000.0,031.0,024.4,012.2,0000.0,0002.76,0001.26,0000.61
2024-05-08 02:28:00,SystemResetWarning,0818.3,5.00,000.00,022.7,021.9,000.0,031.0,024.5,012.3,0000.0,0002.76,0001.26,0000.60
2024-05-08 02:29:00,SystemResetWarning,0818.3,5.00,000.00,022.7,021.9,000.0,031.0,024.4,012.1,0000.0,0002.77,0001.27,0000.58
2024-05-08 02:30:00,SystemResetWarning,0818.4,5.00,000.00,022.7,021.8,000.0,031.0,024.4,012.2,0000.0,0003.47,0001.28,0000.57
2024-05-08 02:31:00,SystemResetWarning,0818.4,4.99,000.00,022.7,021.8,000.0,031.0,024.4,012.3,0000.0,0003.66,0001.26,0000.56
2024-05-08 02:32:00,SystemResetWarning,0818.5,4.99,000.00,022.7,021.8,000.0,031.0,024.4,012.2,0000.0,0003.89,0001.33,0000.57
2024-05-08 02:33:00,SystemResetWarning,0818.5,5.00,000.00,022.7,021.8,000.0,031.0,024.4,012.3,0000.0,0004.01,0001.36,0000.56
2024-05-08 02:34:00,SystemResetWarning,0818.6,5.00,000.00,022.7,021.8,000.0,031.0,024.4,012.3,0000.0,0004.01,0001.37,0000.56
2024-05-08 02:35:00,SystemResetWarning,0818.6,5.00,000.00,022.7,021.8,000.0,031.0,024.4,012.3,0000.0,0004.06,0001.41,0000.56
2024-05-08 02:36:00,SystemResetWarning,0818.6,5.00,000.00,022.6,021.8,000.0,030.9,024.4,012.5,0000.0,0004.31,0001.43,0000.57
2024-05-08 02:37:00,SystemResetWarning,0818.6,5.00,000.00,022.6,021.8,000.0,030.9,024.3,012.4,0000.0,0004.33,0001.41,0000.56
2024-05-08 02:38:00,SystemResetWarning,0818.6,5.00,000.00,022.6,021.8,000.0,030.9,024.3,012.3,0000.0,0004.41,0001.45,0000.57
2024-05-08 02:39:00,SystemResetWarning,0818.6,4.99,000.00,022.6,021.8,000.0,030.9,024.3,012.3,0000.0,0004.24,0001.39,0000.57
2024-05-08 02:40:00,SystemResetWarning,0818.6,4.99,000.00,022.6,021.9,000.0,030.9,024.3,012.4,0000.0,0004.14,0001.34,0000.57
2024-05-08 02:41:00,SystemResetWarning,0818.6,5.00,000.00,022.6,021.9,000.0,030.9,024.3,012.3,0000.0,0003.58,0001.32,0000.57
2024-05-08 02:42:00,SystemResetWarning,0818.6,5.01,000.00,022.6,021.9,000.0,030.9,024.3,012.3,0000.0,0004.06,0001.34,0000.56
2024-05-08 02:43:00,SystemResetWarning,0818.6,5.00,000.00,022.6,021.9,000.0,030.9,024.3,012.2,0000.0,0004.22,0001.28,0000.56
2024-05-08 02:44:00,SystemResetWarning,0818.4,5.00,000.00,022.6,021.9,000.0,030.9,024.4,011.8,0000.0,0004.87,0001.31,0000.57
2024-05-08 02:45:00,SystemResetWarning,0818.5,5.00,000.00,022.6,021.9,000.0,030.9,024.3,011.5,0000.0,0005.20,0001.34,0000.58
2024-05-08 02:46:00,SystemResetWarning,0818.4,5.00,000.00,022.6,021.9,000.0,030.9,024.3,011.4,0000.0,0006.47,0001.36,0000.60
2024-05-08 02:47:00,SystemResetWarning,0818.4,5.00,000.00,022.6,021.9,000.0,030.9,024.3,011.6,0000.0,0006.40,0001.34,0000.60
2024-05-08 02:48:00,SystemResetWarning,0818.4,5.00,000.00,022.6,021.9,000.0,030.9,024.3,011.4,0000.0,0006.30,0001.32,0000.61
2024-05-08 02:49:00,SystemResetWarning,0818.4,5.00,000.00,022.6,021.9,000.0,030.9,024.4,011.3,0000.0,0006.10,0001.23,0000.61
2024-05-08 02:50:00,SystemResetWarning,0818.4,5.00,000.00,022.6,021.9,000.0,030.8,024.4,011.2,0000.0,0007.28,0001.26,0000.61
2024-05-08 02:51:00,SystemResetWarning,0818.4,5.00,000.00,022.6,021.9,000.0,030.8,024.4,011.0,0000.0,0007.62,0001.30,0000.63
2024-05-08 02:52:00,SystemResetWarning,0818.5,5.00,000.00,022.6,021.9,000.0,030.8,024.4,011.1,0000.0,0007.56,0001.29,0000.65
2024-05-08 02:53:00,SystemResetWarning,0818.5,5.01,000.00,022.6,021.9,000.0,030.8,024.3,011.2,0000.0,0007.04,0001.33,0000.66
2024-05-08 02:54:00,SystemResetWarning,0818.5,5.00,000.00,022.6,021.9,000.0,030.8,024.3,011.1,0000.0,0006.88,0001.39,0000.68
2024-05-08 02:55:00,SystemResetWarning,0818.5,5.00,000.00,022.6,021.9,000.0,030.8,024.3,011.1,0000.0,0006.26,0001.38,0000.68
2024-05-08 02:56:00,SystemResetWarning,0818.6,5.00,000.00,022.6,021.9,000.0,030.8,024.3,011.2,0000.0,0006.66,0001.35,0000.68
2024-05-08 02:57:00,SystemResetWarning,0818.6,5.00,000.00,022.6,021.9,000.0,030.8,024.3,012.0,0000.0,0005.53,0001.31,0000.67
2024-05-08 02:58:00,SystemResetWarning,0818.8,5.00,000.00,022.6,021.9,000.0,030.8,024.3,012.4,0000.0,0005.39,0001.32,0000.67
2024-05-08 02:59:00,SystemResetWarning,0819.1,4.99,000.00,022.6,021.9,000.0,030.8,024.3,012.3,0000.0,0005.47,0001.35,0000.68
